TimeCST,TemperatureF,Dew PointF,Humidity,Sea Level PressureIn,VisibilityMPH,Wind Direction,Wind SpeedMPH,Gust SpeedMPH,PrecipitationIn,Events,Conditions,WindDirDegrees,DateUTC
12:52 AM,39.0,33.1,79,30.36,10.0,ESE,6.9,-,N/A,,Clear,120,2012-11-17 06:52:00
1:52 AM,37.0,32.0,82,30.36,10.0,SE,5.8,-,N/A,,Clear,130,2012-11-17 07:52:00
2:52 AM,36.0,32.0,86,30.36,10.0,SE,5.8,-,N/A,,Clear,130,2012-11-17 08:52:00
3:52 AM,35.1,30.9,85,30.37,10.0,SE,4.6,-,N/A,,Clear,140,2012-11-17 09:52:00
4:52 AM,33.1,30.0,89,30.38,10.0,SE,5.8,-,N/A,,Clear,130,2012-11-17 10:52:00
5:52 AM,34.0,30.0,85,30.38,10.0,SE,6.9,-,N/A,,Clear,130,2012-11-17 11:52:00
6:52 AM,34.0,30.0,85,30.39,10.0,SE,6.9,-,N/A,,Clear,130,2012-11-17 12:52:00
7:52 AM,36.0,30.9,82,30.40,9.0,SE,4.6,-,N/A,,Clear,130,2012-11-17 13:52:00
8:52 AM,46.0,36.0,68,30.40,10.0,South,9.2,-,N/A,,Clear,170,2012-11-17 14:52:00
9:52 AM,52.0,35.1,53,30.39,10.0,South,13.8,-,N/A,,Clear,170,2012-11-17 15:52:00
10:52 AM,55.9,33.1,42,30.40,10.0,South,16.1,-,N/A,,Clear,190,2012-11-17 16:52:00
11:52 AM,57.9,33.1,39,30.38,10.0,South,15.0,-,N/A,,Clear,180,2012-11-17 17:52:00
12:52 PM,59.0,33.1,38,30.35,10.0,South,17.3,23.0,N/A,,Clear,180,2012-11-17 18:52:00
1:52 PM,60.1,30.0,32,30.32,10.0,South,15.0,-,N/A,,Clear,180,2012-11-17 19:52:00
2:52 PM,60.1,27.0,28,30.30,10.0,SSE,16.1,20.7,N/A,,Clear,160,2012-11-17 20:52:00
3:52 PM,57.9,23.0,26,30.29,10.0,SSE,17.3,21.9,N/A,,Clear,160,2012-11-17 21:52:00
4:52 PM,52.0,28.9,41,30.30,10.0,SSE,8.1,-,N/A,,Clear,160,2012-11-17 22:52:00
5:52 PM,46.0,28.9,51,30.30,10.0,SSE,6.9,-,N/A,,Clear,160,2012-11-17 23:52:00
6:52 PM,46.0,27.0,47,30.29,10.0,SE,6.9,-,N/A,,Clear,130,2012-11-18 00:52:00
7:52 PM,45.0,27.0,49,30.29,10.0,SE,5.8,-,N/A,,Clear,130,2012-11-18 01:52:00
8:52 PM,41.0,27.0,57,30.29,10.0,SSE,5.8,-,N/A,,Clear,160,2012-11-18 02:52:00
9:52 PM,41.0,27.0,57,30.29,10.0,South,3.5,-,N/A,,Clear,170,2012-11-18 03:52:00
10:52 PM,39.0,26.1,60,30.30,10.0,SSE,4.6,-,N/A,,Clear,160,2012-11-18 04:52:00
11:52 PM,37.0,27.0,67,30.30,10.0,SE,5.8,-,N/A,,Clear,130,2012-11-18 05:52:00